Regional Weather Roundup
Issued by NWS

Home | Current Version | Previous Version | Graphics & Text | Print | Product List | Glossary On
Versions: 1 2 3 4 5 6 7 8 9 10 11 12 13 14 15 16 17 18 19 20 21 22 23 24 25 26 27 28 29 30 31 32 33 34 35 36 37 38 39 40 41 42 43 44 45 46 47 48 49 50
013
ASUS43 KLOT 062008
RWRIL

ILLINOIS REGIONAL WEATHER ROUNDUP
NATIONAL WEATHER SERVICE CHICAGO/ROMEOVILLE IL
200 PM CST TUE DEC 06 2016

NOTE: "FAIR" INDICATES FEW OR NO CLOUDS BELOW 12,000 FEET WITH NO
SIGNIFICANT WEATHER AND/OR OBSTRUCTIONS TO VISIBILITY.

* THESE STATIONS ARE NOT UNDER NWS QUALITY CONTROL. THEY ALSO MAY NOT
  REPORT WEATHER SUCH AS PRECIPITATION OR FOG.

ILZ001-002-007-009-015-016-024-062100-
NORTHWEST ILLINOIS

CITY           SKY/WX    TMP DP  RH WIND       PRES   REMARKS
MOLINE         SUNNY     36  24  62 W13       29.87R WCI  27
STERLING*      SUNNY     34  26  72 W18       29.83R WCI  23
SAVANNA*       SUNNY     33  21  61 W12G21    29.84R WCI  24
$$

ILZ003-004-008-010-011-017-018-062100-
NORTH CENTRAL ILLINOIS

CITY           SKY/WX    TMP DP  RH WIND       PRES   REMARKS
ROCKFORD       PTSUNNY   35  29  78 W16G24    29.80S WCI  25
FREEPORT*      MOSUNNY   31  28  86 W13G20    29.82R WCI  21
ROCHELLE*      CLOUDY    33  32  94 W18       29.81R WCI  22
DE KALB*       CLOUDY    33  33  99 W15G21    29.79S FOG     WCI  23
$$

ILZ005-006-012>014-019>023-062100-
NORTHEAST ILLINOIS

CITY           SKY/WX    TMP DP  RH WIND       PRES   REMARKS
CHICAGO-OHARE  CLOUDY    35  31  85 W12       29.77R FOG     WCI  27
CHICAGO-MIDWAY CLOUDY    36  30  79 W10G22    29.78R FOG     WCI  28
AURORA         CLOUDY    34  32  92 W10G22    29.79S FOG     WCI  26
LANSING*       CLOUDY    34  33  94 W8        29.77R FOG     WCI  28
JOLIET*        CLOUDY    35  33  92 W9        29.81R FOG     WCI  28
WAUKEGAN       CLOUDY    35  32  88 W9        29.75R WCI  28
DUPAGE AIRPORT CLOUDY    34  31  88 W13       29.78R FOG     WCI  25
KANKAKEE*      CLOUDY    34  32  92 W13       29.81R FOG     WCI  25
WHEELING       CLOUDY    35  31  85 W15       29.78R WCI  25
MORRIS*        CLOUDY    33  33  96 W13G20    29.80R FOG     WCI  24
ROMEOVILLE*    CLOUDY    33  33 100 W12       29.80R FOG     WCI  25
NORTHERLY ISL    N/A     38  33  82 W10         N/A  WCI  31
$$

LMZ740>746-062100-
SOUTHERN LAKE MICHIGAN

STATION/POSITION SKY/WX   TEMP    WIND        PRES    VSBY  WAVE
                          AIR SEA DIR/SP/G                  HT/PER
                          (F)     (DEG/KT/KT) (MB)    (MI)  (FT/S)
HARRISON CRIB              38     280/ 19/ 22   N/A
BURNHAM HARBOR             37     280/ 13/ 17   N/A
CALUMET HARBOR             37     250/  6/ 14 1007.4R
MICHIGAN CITY              39     220/ 13/ 15   N/A
$$

ILZ025>027-034>036-040-047-049-050-058-095>099-062100-
WEST-CENTRAL ILLINOIS

CITY           SKY/WX    TMP DP  RH WIND       PRES   REMARKS
QUINCY         SUNNY     40  27  59 W15       29.93R
GALESBURG*     SUNNY     36  30  78 W16G23    29.89R WCI  26
MACOMB*        MOSUNNY   39  29  69 NW15G21   29.93R WCI  30
JACKSONVILLE*  CLOUDY    38  31  76 W18       29.92R WCI  29
PITTSFIELD*    MOSUNNY   41  30  65 W17       29.94R
$$

ILZ028>032-037-038-041>044-048-051>054-059>061-062100-
CENTRAL ILLINOIS

CITY           SKY/WX    TMP DP  RH WIND       PRES   REMARKS
PONTIAC        CLOUDY    36  36 100 W17       29.84R FOG     WCI  26
BLOOMINGTON    CLOUDY    36  34  92 W15       29.84R FOG     WCI  27
DECATUR        CLOUDY    39  34  82 NW16G28   29.86R WCI  30
PEORIA         PTSUNNY   38  29  70 W15       29.88R WCI  29
LACON*         CLOUDY    37  31  81 NW14      29.86R WCI  28
LINCOLN*       CLOUDY    39  36  89 NW7       29.88R WCI  34
SPRINGFIELD    CLOUDY    40  36  86 W13       29.90R
TAYLORVILLE    CLOUDY    38  35  88 NW13G20   29.89R WCI  30
$$

ILZ033-039-045-046-055>057-062-063-062100-
EAST-CENTRAL ILLINOIS

CITY           SKY/WX    TMP DP  RH WIND       PRES   REMARKS
CHAMPAIGN      CLOUDY    38  33  82 NW18      29.84R WCI  28
RANTOUL*       CLOUDY    38  35  90 NW16      29.83R WCI  29
MATTOON        CLOUDY    37  32  82 NW14      29.85R WCI  28
PARIS*         CLOUDY    38  35  89 W17       29.84R WCI  28
$$

ILZ079-100>102-062100-
SOUTHWEST ILLINOIS

CITY           SKY/WX    TMP DP  RH WIND       PRES   REMARKS
ALTON          CLOUDY    39  36  87 NW17      29.94R WCI  30
CAHOKIA*       CLOUDY    42  34  73 NW13      29.95R
SPARTA*        CLOUDY    40  35  81 NW12      29.94R
$$

ILZ064>066-069>071-074>076-080>082-084>086-088>090-092>094-062100-
SOUTH-CENTRAL ILLINOIS

CITY           SKY/WX    TMP DP  RH WIND       PRES   REMARKS
CARBONDALE     CLOUDY    42  37  82 NW10      29.92R
CAIRO*         PTSUNNY   46  39  76 NW13      29.90S
EFFINGHAM*     CLOUDY    39  36  90 W14G24    29.89R WCI  30
MARION         CLOUDY    41  37  87 NW14      29.92R
CENTRALIA*     CLOUDY    41  36  83 NW15G22   29.90R
SALEM*         CLOUDY    41  35  79 NW12G18   29.89R
METROPOLIS*    PTSUNNY   44  37  77 NW12      29.90R
$$

ILZ067-068-072-073-078-083-087-091-062100-
SOUTHEAST ILLINOIS

CITY           SKY/WX    TMP DP  RH WIND       PRES   REMARKS
LAWRENCEVILLE  CLOUDY    41  36  82 W16       29.84R
FLORA*         CLOUDY    40  35  83 NW14G21   29.88R
FAIRFIELD*     CLOUDY    39  34  82 NW6       29.88R
HARRISBURG*    CLOUDY    41  37  86 NW9G16    29.91R
ROBINSON*      CLOUDY    40  36  86 W14G20    29.84R
CARMI*         CLOUDY    39  36  88 W14G25    29.89R WCI  31
$$

ABBREVIATIONS USED IN REMARKS
   TC - TEMPERATURE IN CELSIUS
  WCI - WIND CHILL INDEX
   HX - HEAT INDEX
  VSB - VISIBILITY
$$





USA.gov is the U.S. government's official web portal to all federal, state and local government web resources and services.